QPF
0.04 0.04 0.04 0.04 0.04 0.05 0.05 0.05 0.04 0.03 0.02 0.01 0.01 0.01 0.01 0.01 0.01 0.01 0.01 0.01 0.01 0.01 0.02 0.03 0.04 0.03 0.02 0.02 0.02 0.02 0.02 0.02 0.02 0.02 0.02 0.02 0.01 0.01 0.01 0.01 0.01 0.01 0.01
0.04 0.04 0.05 0.05 0.04 0.04 0.04 0.04 0.04 0.03 0.02 0.01 0.01 0.00 0.00 0.00 0.00 0.01 0.01 0.01 0.01 0.01 0.02 0.03 0.03 0.03 0.02 0.01 0.02 0.02 0.02 0.02 0.02 0.03 0.02 0.02 0.01 0.01 0.01 0.01 0.01 0.01 0.01
0.05 0.05 0.05 0.07 0.05 0.04 0.04 0.04 0.04 0.05 0.03 0.02 0.01 0.01 0.00 0.00 0.00 0.00 0.01 0.01 0.01 0.01 0.02 0.01 0.01 0.02 0.02 0.02 0.01 0.02 0.02 0.02 0.02 0.02 0.02 0.02 0.02 0.02 0.02 0.02 0.01 0.02 0.01
0.11 0.10 0.09 0.08 0.07 0.05 0.04 0.04 0.04 0.04 0.04 0.02 0.02 0.01 0.00 0.00 0.00 0.00 0.00 0.00 0.00 0.00 0.01 0.01 0.01 0.01 0.02 0.02 0.01 0.02 0.02 0.02 0.02 0.03 0.03 0.03 0.04 0.04 0.03 0.02 0.02 0.02 0.02
0.09 0.13 0.14 0.11 0.08 0.06 0.04 0.04 0.03 0.04 0.04 0.03 0.02 0.01 0.01 0.00 0.00 0.00 0.00 0.00 0.00 0.00 0.01 0.01 0.01 0.01 0.01 0.02 0.01 0.01 0.01 0.02 0.03 0.03 0.04 0.04 0.04 0.04 0.04 0.03 0.03 0.04 0.04
0.05 0.08 0.13 0.14 0.12 0.09 0.05 0.04 0.03 0.03 0.03 0.03 0.03 0.02 0.01 0.01 0.00 0.00 0.00 0.00 0.00 0.00 0.00 0.01 0.01 0.00 0.00 0.01 0.01 0.00 0.00 0.01 0.01 0.02 0.03 0.03 0.04 0.04 0.04 0.04 0.05 0.06 0.05
0.03 0.04 0.07 0.10 0.13 0.12 0.09 0.05 0.05 0.06 0.05 0.03 0.03 0.03 0.02 0.01 0.01 0.00 0.00 0.00 0.00 0.00 0.00 0.01 0.01 0.01 0.01 0.01 0.00 0.00 0.00 0.01 0.01 0.02 0.02 0.02 0.03 0.03 0.03 0.03 0.03 0.03 0.03
0.02 0.03 0.04 0.05 0.08 0.10 0.11 0.09 0.06 0.05 0.06 0.05 0.04 0.03 0.03 0.02 0.01 0.01 0.00 0.00 0.00 0.00 0.00 0.00 0.01 0.01 0.01 0.01 0.01 0.00 0.00 0.00 0.01 0.01 0.02 0.02 0.03 0.03 0.03 0.03 0.03 0.02 0.03
0.01 0.02 0.02 0.03 0.05 0.06 0.08 0.08 0.07 0.05 0.05 0.05 0.04 0.03 0.03 0.02 0.01 0.01 0.01 0.00 0.00 0.00 0.00 0.00 0.00 0.01 0.01 0.01 0.01 0.00 0.00 0.00 0.00 0.01 0.02 0.02 0.02 0.03 0.03 0.03 0.03 0.03 0.03
0.01 0.01 0.01 0.02 0.03 0.04 0.04 0.05 0.05 0.05 0.05 0.05 0.03 0.02 0.02 0.01 0.01 0.01 0.01 0.00 0.00 0.01 0.00 0.00 0.00 0.00 0.00 0.00 0.00 0.00 0.00 0.00 0.00 0.00 0.01 0.01 0.02 0.02 0.03 0.03 0.03 0.03 0.03
0.01 0.00 0.01 0.01 0.02 0.03 0.03 0.03 0.03 0.04 0.05 0.05 0.03 0.02 0.02 0.02 0.01 0.01 0.01 0.01 0.00 0.00 0.01 0.01 0.01 0.01 0.01 0.00 0.00 0.00 0.00 0.00 0.00 0.00 0.00 0.01 0.01 0.02 0.02 0.03 0.03 0.03 0.03
0.01 0.01 0.01 0.01 0.01 0.01 0.02 0.02 0.03 0.03 0.05 0.05 0.03 0.02 0.01 0.01 0.01 0.01 0.01 0.01 0.01 0.00 0.00 0.00 0.01 0.01 0.01 0.01 0.00 0.00 0.00 0.00 0.00 0.00 0.00 0.00 0.01 0.01 0.01 0.02 0.02 0.02 0.03
0.01 0.01 0.01 0.01 0.01 0.01 0.01 0.01 0.01 0.02 0.03 0.04 0.04 0.03 0.02 0.01 0.01 0.01 0.01 0.01 0.01 0.01 0.00 0.00 0.00 0.01 0.01 0.01 0.01 0.01 0.01 0.00 0.00 0.00 0.00 0.00 0.00 0.01 0.01 0.01 0.02 0.02 0.02
0.01 0.01 0.01 0.02 0.01 0.01 0.01 0.01 0.01 0.01 0.01 0.02 0.02 0.02 0.02 0.01 0.01 0.01 0.01 0.01 0.01 0.01 0.01 0.00 0.00 0.01 0.01 0.01 0.01 0.01 0.01 0.01 0.00 0.00 0.00 0.00 0.00 0.01 0.01 0.01 0.02 0.02 0.03
0.01 0.01 0.01 0.01 0.01 0.02 0.02 0.02 0.02 0.01 0.01 0.01 0.01 0.01 0.01 0.01 0.00 0.00 0.00 0.00 0.01 0.01 0.01 0.00 0.00 0.00 0.01 0.02 0.01 0.01 0.01 0.01 0.00 0.00 0.00 0.01 0.01 0.01 0.01 0.01 0.02 0.02 0.03
0.02 0.01 0.01 0.01 0.01 0.02 0.03 0.03 0.03 0.02 0.01 0.01 0.01 0.01 0.01 0.00 0.00 0.00 0.00 0.00 0.00 0.01 0.01 0.00 0.00 0.00 0.00 0.01 0.02 0.02 0.01 0.01 0.01 0.01 0.01 0.01 0.01 0.01 0.01 0.02 0.02 0.03 0.03
0.02 0.01 0.01 0.01 0.01 0.01 0.03 0.05 0.05 0.03 0.03 0.02 0.01 0.01 0.01 0.01 0.00 0.00 0.00 0.00 0.01 0.01 0.01 0.00 0.00 0.00 0.00 0.00 0.01 0.02 0.03 0.03 0.02 0.02 0.02 0.02 0.01 0.01 0.02 0.02 0.02 0.03 0.03
0.01 0.01 0.01 0.00 0.00 0.01 0.02 0.04 0.05 0.05 0.04 0.03 0.02 0.02 0.01 0.01 0.01 0.01 0.01 0.01 0.01 0.01 0.01 0.01 0.00 0.00 0.00 0.00 0.01 0.01 0.02 0.04 0.04 0.04 0.04 0.03 0.02 0.02 0.03 0.02 0.03 0.02 0.01
0.01 0.01 0.01 0.00 0.00 0.00 0.01 0.02 0.03 0.04 0.05 0.03 0.02 0.02 0.01 0.01 0.01 0.01 0.01 0.01 0.01 0.01 0.01 0.01 0.01 0.01 0.01 0.01 0.01 0.01 0.01 0.02 0.03 0.04 0.04 0.04 0.03 0.03 0.02 0.02 0.02 0.01 0.01
0.01 0.01 0.01 0.01 0.01 0.00 0.01 0.02 0.03 0.03 0.04 0.04 0.03 0.02 0.01 0.01 0.01 0.01 0.01 0.01 0.01 0.01 0.01 0.01 0.01 0.01 0.01 0.01 0.01 0.01 0.02 0.02 0.03 0.03 0.03 0.03 0.02 0.02 0.01 0.01 0.01 0.01 0.01
0.01 0.01 0.01 0.01 0.01 0.01 0.01 0.02 0.03 0.03 0.03 0.03 0.03 0.03 0.03 0.01 0.01 0.01 0.01 0.01 0.01 0.01 0.01 0.01 0.01 0.01 0.01 0.01 0.01 0.01 0.01 0.02 0.03 0.02 0.02 0.02 0.01 0.01 0.01 0.01 0.01 0.01 0.01
0.01 0.01 0.01 0.01 0.02 0.01 0.02 0.02 0.03 0.03 0.03 0.03 0.03 0.03 0.03 0.03 0.02 0.01 0.01 0.01 0.01 0.01 0.01 0.01 0.01 0.01 0.01 0.01 0.01 0.01 0.01 0.01 0.02 0.02 0.02 0.02 0.01 0.01 0.01 0.01 0.01 0.01 0.01
0.01 0.01 0.01 0.01 0.01 0.02 0.02 0.02 0.02 0.02 0.03 0.03 0.02 0.02 0.03 0.03 0.02 0.01 0.01 0.01 0.00 0.01 0.01 0.01 0.01 0.01 0.00 0.00 0.00 0.00 0.01 0.01 0.01 0.01 0.02 0.02 0.02 0.02 0.02 0.02 0.01 0.01 0.01
0.01 0.01 0.01 0.01 0.01 0.01 0.02 0.02 0.02 0.02 0.03 0.03 0.03 0.02 0.02 0.02 0.02 0.01 0.01 0.01 0.00 0.00 0.00 0.00 0.00 0.01 0.00 0.00 0.00 0.00 0.01 0.01 0.01 0.01 0.01 0.02 0.01 0.01 0.01 0.02 0.01 0.01 0.01
0.01 0.01 0.01 0.01 0.01 0.01 0.02 0.02 0.02 0.02 0.02 0.03 0.03 0.02 0.02 0.02 0.02 0.01 0.01 0.01 0.00 0.00 0.00 0.00 0.01 0.01 0.00 0.00 0.00 0.00 0.01 0.01 0.01 0.00 0.01 0.01 0.01 0.01 0.01 0.02 0.01 0.01 0.01
0.01 0.01 0.01 0.01 0.01 0.01 0.02 0.02 0.03 0.03 0.03 0.03 0.03 0.03 0.03 0.02 0.02 0.02 0.01 0.01 0.01 0.00 0.00 0.00 0.00 0.00 0.00 0.00 0.00 0.00 0.01 0.01 0.01 0.01 0.00 0.01 0.01 0.01 0.02 0.02 0.01 0.01 0.01
MSLP
1018.61 1018.71 1018.75 1018.75 1018.71 1018.65 1018.58 1018.49 1018.38 1018.25 1018.09 1017.92 1017.74 1017.56 1017.42 1017.32 1017.29 1017.32 1017.43 1017.59 1017.80 1018.05 1018.31 1018.60 1018.91 1019.25 1019.62 1020.03 1020.46 1020.93 1021.39 1021.84 1022.24 1022.59 1022.87 1023.08 1023.22 1023.31 1023.35 1023.37 1023.36 1023.34 1023.31
1018.71 1018.79 1018.83 1018.84 1018.81 1018.77 1018.70 1018.61 1018.50 1018.36 1018.18 1017.98 1017.77 1017.57 1017.41 1017.29 1017.23 1017.25 1017.33 1017.47 1017.67 1017.89 1018.15 1018.43 1018.74 1019.09 1019.47 1019.89 1020.35 1020.84 1021.33 1021.82 1022.27 1022.66 1022.98 1023.23 1023.41 1023.53 1023.60 1023.62 1023.62 1023.60 1023.56
1018.81 1018.89 1018.93 1018.95 1018.95 1018.92 1018.87 1018.79 1018.67 1018.50 1018.30 1018.07 1017.83 1017.60 1017.39 1017.24 1017.14 1017.12 1017.17 1017.28 1017.45 1017.65 1017.90 1018.18 1018.49 1018.85 1019.25 1019.70 1020.19 1020.70 1021.23 1021.75 1022.23 1022.66 1023.03 1023.32 1023.54 1023.70 1023.80 1023.86 1023.88 1023.88 1023.85
1018.91 1018.99 1019.05 1019.10 1019.12 1019.12 1019.08 1019.00 1018.86 1018.68 1018.45 1018.18 1017.90 1017.62 1017.37 1017.17 1017.03 1016.96 1016.96 1017.02 1017.14 1017.32 1017.55 1017.83 1018.15 1018.53 1018.97 1019.44 1019.96 1020.51 1021.06 1021.60 1022.12 1022.58 1022.98 1023.32 1023.59 1023.80 1023.95 1024.05 1024.12 1024.15 1024.16
1018.99 1019.09 1019.19 1019.26 1019.32 1019.34 1019.31 1019.23 1019.08 1018.87 1018.61 1018.30 1017.98 1017.66 1017.36 1017.11 1016.91 1016.77 1016.71 1016.71 1016.79 1016.92 1017.13 1017.40 1017.73 1018.13 1018.60 1019.11 1019.66 1020.24 1020.82 1021.39 1021.92 1022.41 1022.85 1023.22 1023.53 1023.80 1024.00 1024.17 1024.29 1024.38 1024.44
1019.04 1019.18 1019.32 1019.43 1019.52 1019.57 1019.55 1019.47 1019.31 1019.08 1018.78 1018.45 1018.09 1017.73 1017.39 1017.09 1016.83 1016.63 1016.49 1016.42 1016.43 1016.51 1016.68 1016.93 1017.27 1017.68 1018.17 1018.71 1019.30 1019.90 1020.51 1021.10 1021.66 1022.17 1022.63 1023.04 1023.39 1023.70 1023.97 1024.20 1024.39 1024.54 1024.66
1019.06 1019.24 1019.42 1019.59 1019.71 1019.79 1019.79 1019.70 1019.54 1019.29 1018.99 1018.63 1018.26 1017.88 1017.50 1017.16 1016.84 1016.58 1016.37 1016.22 1016.15 1016.17 1016.28 1016.49 1016.81 1017.22 1017.72 1018.29 1018.89 1019.53 1020.16 1020.77 1021.34 1021.87 1022.36 1022.79 1023.18 1023.53 1023.85 1024.14 1024.39 1024.61 1024.79
1019.03 1019.27 1019.50 1019.71 1019.88 1019.98 1020.00 1019.93 1019.77 1019.53 1019.22 1018.88 1018.50 1018.12 1017.74 1017.37 1017.02 1016.70 1016.41 1016.19 1016.04 1015.97 1016.01 1016.16 1016.43 1016.82 1017.30 1017.87 1018.48 1019.13 1019.77 1020.40 1021.00 1021.54 1022.05 1022.51 1022.93 1023.32 1023.68 1024.01 1024.32 1024.60 1024.83
1018.96 1019.25 1019.53 1019.78 1019.99 1020.13 1020.17 1020.13 1019.99 1019.78 1019.50 1019.19 1018.85 1018.49 1018.12 1017.75 1017.38 1017.02 1016.68 1016.38 1016.14 1015.98 1015.93 1015.99 1016.19 1016.52 1016.96 1017.49 1018.09 1018.73 1019.38 1020.02 1020.63 1021.21 1021.73 1022.22 1022.67 1023.09 1023.48 1023.85 1024.20 1024.52 1024.81
1018.85 1019.17 1019.50 1019.80 1020.05 1020.23 1020.31 1020.31 1020.21 1020.05 1019.82 1019.57 1019.28 1018.97 1018.65 1018.30 1017.94 1017.56 1017.18 1016.81 1016.49 1016.23 1016.07 1016.03 1016.13 1016.36 1016.72 1017.19 1017.74 1018.35 1018.99 1019.63 1020.26 1020.85 1021.41 1021.93 1022.41 1022.86 1023.29 1023.69 1024.06 1024.41 1024.74
1018.69 1019.05 1019.42 1019.76 1020.05 1020.27 1020.40 1020.44 1020.41 1020.31 1020.16 1019.97 1019.77 1019.53 1019.27 1018.97 1018.63 1018.26 1017.85 1017.44 1017.05 1016.71 1016.44 1016.28 1016.25 1016.36 1016.60 1016.97 1017.44 1017.99 1018.59 1019.22 1019.86 1020.48 1021.07 1021.63 1022.16 1022.65 1023.10 1023.53 1023.93 1024.31 1024.66
1018.49 1018.88 1019.28 1019.65 1019.98 1020.24 1020.42 1020.53 1020.56 1020.53 1020.47 1020.37 1020.25 1020.10 1019.91 1019.67 1019.38 1019.03 1018.64 1018.21 1017.77 1017.35 1016.99 1016.72 1016.55 1016.51 1016.61 1016.84 1017.19 1017.65 1018.19 1018.79 1019.42 1020.07 1020.70 1021.32 1021.89 1022.43 1022.93 1023.39 1023.82 1024.22 1024.59
1018.24 1018.65 1019.07 1019.47 1019.83 1020.13 1020.36 1020.53 1020.63 1020.69 1020.71 1020.70 1020.66 1020.59 1020.49 1020.32 1020.09 1019.79 1019.43 1019.01 1018.56 1018.10 1017.66 1017.28 1016.99 1016.80 1016.74 1016.81 1017.01 1017.35 1017.79 1018.34 1018.95 1019.61 1020.29 1020.96 1021.60 1022.20 1022.75 1023.26 1023.73 1024.15 1024.56
1017.95 1018.37 1018.80 1019.21 1019.60 1019.93 1020.21 1020.44 1020.61 1020.74 1020.84 1020.91 1020.95 1020.96 1020.93 1020.84 1020.68 1020.45 1020.14 1019.76 1019.33 1018.87 1018.39 1017.94 1017.53 1017.20 1016.97 1016.87 1016.91 1017.09 1017.43 1017.89 1018.47 1019.13 1019.84 1020.57 1021.28 1021.95 1022.58 1023.14 1023.65 1024.11 1024.54
1017.62 1018.03 1018.46 1018.88 1019.28 1019.65 1019.97 1020.25 1020.48 1020.68 1020.84 1020.98 1021.09 1021.16 1021.19 1021.17 1021.09 1020.93 1020.70 1020.40 1020.02 1019.59 1019.12 1018.62 1018.13 1017.69 1017.31 1017.04 1016.91 1016.94 1017.13 1017.50 1018.02 1018.66 1019.39 1020.17 1020.95 1021.70 1022.39 1023.02 1023.58 1024.09 1024.55
1017.25 1017.65 1018.06 1018.48 1018.89 1019.27 1019.63 1019.95 1020.24 1020.49 1020.71 1020.90 1021.05 1021.17 1021.26 1021.30 1021.29 1021.21 1021.08 1020.86 1020.58 1020.21 1019.78 1019.29 1018.77 1018.24 1017.75 1017.34 1017.05 1016.92 1016.97 1017.23 1017.67 1018.28 1019.01 1019.81 1020.65 1021.46 1022.22 1022.92 1023.53 1024.08 1024.57
1016.86 1017.23 1017.62 1018.03 1018.43 1018.83 1019.21 1019.57 1019.90 1020.19 1020.45 1020.68 1020.87 1021.03 1021.15 1021.24 1021.29 1021.30 1021.25 1021.15 1020.97 1020.71 1020.36 1019.92 1019.40 1018.84 1018.28 1017.77 1017.35 1017.09 1017.01 1017.15 1017.51 1018.06 1018.77 1019.58 1020.44 1021.30 1022.11 1022.85 1023.50 1024.08 1024.60
1016.47 1016.81 1017.16 1017.54 1017.93 1018.33 1018.73 1019.11 1019.47 1019.81 1020.10 1020.36 1020.57 1020.76 1020.91 1021.03 1021.14 1021.22 1021.27 1021.27 1021.21 1021.06 1020.82 1020.46 1020.00 1019.46 1018.88 1018.32 1017.82 1017.46 1017.28 1017.32 1017.59 1018.07 1018.73 1019.53 1020.39 1021.26 1022.09 1022.85 1023.53 1024.12 1024.64
1016.09 1016.38 1016.70 1017.04 1017.41 1017.80 1018.20 1018.61 1018.99 1019.35 1019.68 1019.96 1020.20 1020.40 1020.57 1020.73 1020.87 1021.01 1021.14 1021.24 1021.29 1021.26 1021.14 1020.90 1020.53 1020.06 1019.51 1018.95 1018.43 1018.02 1017.77 1017.73 1017.93 1018.35 1018.95 1019.69 1020.52 1021.37 1022.19 1022.94 1023.61 1024.19 1024.70
1015.73 1015.97 1016.25 1016.55 1016.89 1017.26 1017.65 1018.06 1018.46 1018.85 1019.20 1019.50 1019.77 1019.99 1020.18 1020.36 1020.53 1020.72 1020.90 1021.08 1021.23 1021.31 1021.31 1021.19 1020.94 1020.57 1020.11 1019.61 1019.12 1018.72 1018.45 1018.37 1018.51 1018.86 1019.40 1020.08 1020.85 1021.64 1022.41 1023.12 1023.75 1024.30 1024.79
1015.40 1015.59 1015.81 1016.07 1016.36 1016.70 1017.08 1017.48 1017.90 1018.30 1018.67 1019.00 1019.28 1019.53 1019.74 1019.94 1020.13 1020.35 1020.57 1020.81 1021.03 1021.21 1021.31 1021.31 1021.20 1020.96 1020.62 1020.22 1019.82 1019.47 1019.23 1019.15 1019.26 1019.56 1020.03 1020.64 1021.32 1022.04 1022.73 1023.38 1023.95 1024.45 1024.89
1015.08 1015.22 1015.39 1015.60 1015.85 1016.14 1016.49 1016.88 1017.28 1017.69 1018.08 1018.44 1018.75 1019.02 1019.25 1019.47 1019.69 1019.92 1020.17 1020.44 1020.71 1020.95 1021.15 1021.26 1021.27 1021.17 1020.97 1020.71 1020.43 1020.18 1020.01 1019.96 1020.07 1020.34 1020.75 1021.28 1021.87 1022.49 1023.10 1023.66 1024.16 1024.59 1024.98
1014.74 1014.85 1014.97 1015.13 1015.32 1015.57 1015.88 1016.23 1016.63 1017.03 1017.44 1017.81 1018.16 1018.46 1018.72 1018.96 1019.20 1019.44 1019.70 1019.99 1020.28 1020.57 1020.83 1021.03 1021.15 1021.18 1021.13 1021.02 1020.88 1020.76 1020.68 1020.70 1020.83 1021.08 1021.45 1021.90 1022.41 1022.93 1023.44 1023.92 1024.33 1024.70 1025.04
1014.35 1014.44 1014.53 1014.64 1014.79 1014.98 1015.24 1015.56 1015.92 1016.32 1016.73 1017.13 1017.50 1017.83 1018.13 1018.41 1018.66 1018.92 1019.19 1019.48 1019.78 1020.09 1020.39 1020.65 1020.86 1021.01 1021.10 1021.13 1021.14 1021.14 1021.17 1021.26 1021.43 1021.69 1022.02 1022.41 1022.84 1023.27 1023.69 1024.08 1024.43 1024.74 1025.03
1013.88 1013.96 1014.03 1014.11 1014.22 1014.37 1014.58 1014.85 1015.18 1015.56 1015.97 1016.38 1016.78 1017.16 1017.50 1017.81 1018.09 1018.37 1018.65 1018.93 1019.24 1019.55 1019.87 1020.18 1020.46 1020.70 1020.90 1021.06 1021.19 1021.31 1021.45 1021.61 1021.82 1022.08 1022.38 1022.72 1023.08 1023.44 1023.79 1024.11 1024.41 1024.68 1024.93
1013.30 1013.39 1013.46 1013.53 1013.61 1013.72 1013.89 1014.12 1014.42 1014.78 1015.18 1015.61 1016.03 1016.45 1016.83 1017.18 1017.51 1017.81 1018.10 1018.39 1018.69 1019.01 1019.34 1019.67 1019.99 1020.30 1020.58 1020.84 1021.08 1021.30 1021.52 1021.74 1021.98 1022.24 1022.53 1022.82 1023.13 1023.43 1023.72 1023.99 1024.25 1024.49 1024.74
Thickness
5642 5641 5641 5641 5641 5642 5643 5643 5643 5644 5644 5645 5645 5645 5645 5645 5645 5644 5643 5642 5641 5641 5640 5640 5639 5638 5637 5636 5634 5633 5631 5629 5628 5627 5626 5625 5625 5625 5625 5624 5624 5624 5625
5636 5636 5635 5634 5635 5635 5636 5636 5637 5637 5637 5638 5638 5639 5639 5639 5638 5637 5636 5635 5634 5634 5633 5632 5631 5630 5629 5628 5626 5624 5623 5621 5620 5619 5618 5617 5617 5616 5616 5616 5616 5616 5617
5629 5629 5628 5627 5628 5629 5629 5629 5630 5631 5631 5631 5631 5632 5632 5632 5631 5630 5629 5628 5627 5626 5625 5624 5623 5621 5620 5619 5617 5616 5615 5613 5612 5611 5610 5610 5609 5608 5608 5607 5607 5608 5608
5622 5622 5622 5620 5621 5622 5622 5622 5622 5622 5623 5623 5623 5623 5624 5624 5623 5623 5622 5621 5620 5618 5616 5615 5614 5612 5611 5609 5608 5607 5606 5605 5604 5603 5602 5601 5601 5600 5599 5599 5599 5599 5599
5615 5615 5615 5614 5614 5615 5615 5616 5615 5615 5614 5614 5615 5615 5616 5616 5615 5615 5614 5613 5612 5610 5608 5607 5605 5603 5601 5601 5599 5598 5598 5597 5596 5595 5594 5593 5593 5592 5591 5591 5591 5590 5591
5608 5608 5608 5607 5607 5607 5607 5607 5607 5607 5606 5605 5606 5606 5606 5607 5607 5606 5606 5605 5603 5602 5600 5598 5597 5595 5592 5591 5590 5590 5589 5588 5588 5587 5587 5586 5585 5584 5583 5583 5582 5582 5581
5600 5600 5599 5599 5598 5597 5598 5599 5599 5597 5596 5597 5595 5595 5597 5598 5598 5598 5597 5596 5595 5593 5591 5590 5588 5586 5584 5582 5581 5581 5580 5580 5579 5579 5579 5578 5577 5576 5575 5574 5573 5572 5572
5592 5592 5591 5591 5590 5589 5589 5590 5590 5588 5587 5587 5586 5584 5584 5585 5588 5589 5588 5587 5585 5584 5583 5581 5579 5577 5575 5574 5572 5571 5571 5571 5571 5571 5570 5569 5568 5567 5566 5565 5564 5563 5563
5584 5584 5584 5583 5583 5582 5581 5581 5581 5580 5577 5577 5578 5577 5576 5575 5575 5577 5578 5577 5576 5575 5573 5572 5570 5569 5567 5565 5564 5563 5562 5562 5562 5562 5562 5561 5560 5559 5557 5556 5555 5554 5553
5576 5577 5576 5575 5575 5574 5574 5574 5574 5573 5571 5569 5569 5570 5569 5568 5566 5565 5567 5567 5567 5565 5564 5563 5561 5560 5559 5557 5555 5554 5553 5553 5553 5553 5553 5552 5551 5549 5548 5547 5546 5545 5544
5568 5569 5568 5568 5567 5567 5566 5566 5566 5565 5564 5562 5560 5560 5559 5559 5559 5556 5555 5555 5555 5555 5555 5554 5552 5551 5550 5548 5547 5546 5545 5545 5544 5544 5543 5542 5541 5540 5539 5538 5536 5535 5535
5559 5560 5560 5560 5560 5559 5559 5558 5558 5556 5556 5555 5553 5552 5550 5549 5548 5547 5545 5545 5544 5544 5545 5544 5543 5542 5540 5539 5538 5537 5536 5535 5535 5534 5534 5533 5532 5531 5529 5528 5527 5526 5525
5551 5551 5552 5552 5551 5551 5550 5550 5550 5548 5547 5546 5545 5544 5543 5541 5541 5539 5537 5535 5535 5534 5535 5534 5533 5533 5531 5530 5529 5528 5527 5526 5525 5525 5525 5524 5523 5521 5520 5518 5517 5517 5516
5544 5544 5543 5543 5543 5542 5542 5541 5541 5540 5539 5538 5537 5536 5534 5533 5531 5530 5528 5525 5524 5524 5524 5524 5523 5523 5522 5520 5519 5518 5517 5517 5517 5517 5516 5515 5514 5512 5511 5509 5508 5508 5507
5536 5535 5534 5534 5533 5533 5533 5532 5532 5532 5531 5530 5528 5527 5525 5524 5522 5521 5520 5517 5513 5512 5513 5514 5512 5513 5512 5510 5509 5508 5508 5508 5508 5508 5507 5506 5504 5503 5502 5501 5500 5499 5498
5527 5527 5526 5525 5524 5524 5524 5523 5523 5523 5522 5521 5519 5518 5516 5515 5513 5512 5510 5509 5506 5503 5503 5504 5503 5502 5501 5500 5499 5499 5498 5498 5498 5498 5497 5496 5495 5494 5493 5491 5490 5489 5489
5519 5519 5518 5517 5516 5515 5515 5515 5515 5514 5513 5511 5510 5509 5507 5506 5504 5503 5501 5500 5498 5495 5493 5494 5493 5492 5490 5489 5489 5489 5489 5489 5488 5488 5487 5486 5485 5485 5483 5483 5482 5481 5480
5510 5511 5510 5508 5507 5507 5507 5507 5506 5505 5504 5503 5501 5499 5498 5496 5495 5493 5491 5489 5488 5486 5484 5483 5483 5481 5480 5479 5478 5478 5478 5478 5478 5478 5477 5476 5475 5475 5474 5473 5473 5472 5471
5501 5502 5501 5500 5499 5498 5498 5498 5497 5496 5495 5494 5492 5490 5488 5487 5485 5483 5481 5479 5478 5477 5475 5473 5472 5470 5469 5468 5468 5468 5468 5468 5468 5468 5467 5467 5465 5465 5464 5464 5464 5463 5462
5492 5492 5493 5492 5491 5490 5489 5488 5488 5486 5485 5484 5483 5482 5480 5478 5476 5474 5472 5469 5468 5466 5464 5462 5461 5460 5458 5458 5457 5456 5456 5456 5457 5457 5457 5457 5456 5456 5455 5455 5455 5454 5453
5483 5483 5483 5483 5482 5481 5480 5479 5478 5477 5476 5475 5474 5473 5471 5470 5468 5466 5464 5461 5458 5456 5454 5452 5451 5449 5448 5446 5445 5445 5444 5444 5445 5446 5446 5447 5446 5447 5446 5446 5445 5444 5444
5473 5473 5473 5472 5472 5472 5471 5470 5469 5468 5467 5466 5464 5463 5462 5460 5458 5457 5455 5453 5450 5448 5444 5442 5441 5439 5438 5437 5435 5434 5432 5432 5433 5434 5433 5435 5436 5436 5437 5436 5436 5435 5435
5463 5463 5463 5462 5462 5461 5461 5461 5460 5459 5457 5456 5455 5453 5452 5450 5448 5446 5444 5443 5441 5439 5437 5434 5432 5431 5429 5428 5426 5424 5422 5420 5421 5422 5422 5424 5426 5426 5427 5427 5427 5427 5426
5453 5454 5453 5452 5452 5452 5452 5451 5450 5449 5448 5447 5445 5444 5442 5439 5438 5436 5435 5432 5431 5429 5427 5426 5425 5424 5422 5420 5418 5415 5413 5412 5412 5412 5412 5412 5415 5416 5418 5418 5418 5418 5417
5444 5445 5444 5443 5443 5443 5443 5442 5441 5439 5437 5436 5435 5434 5432 5430 5429 5428 5425 5423 5421 5419 5419 5418 5417 5415 5414 5412 5410 5407 5404 5402 5402 5403 5403 5402 5404 5405 5408 5409 5409 5409 5408
5436 5436 5435 5434 5434 5434 5434 5433 5432 5430 5428 5427 5426 5424 5423 5422 5420 5419 5416 5414 5412 5411 5411 5410 5408 5407 5405 5403 5401 5398 5396 5393 5392 5393 5395 5392 5392 5393 5396 5400 5400 5400 5399